Location: Borea
(45.6167°N, 23.0167°E)
Time: 05:29:13
(UTC+00:00)

BlueWalker 3 - Pass Details

Date: 03 February 2023
Orbit: 497 x 514 km, 53.2° (Epoch: 29 March)

Event Time Altitude Azimuth Distance (km) Brightness Sun altitude
Rises 16:50:50 0° 286° (WNW) 2,601 6.8 -13.2°
Reaches altitude 10° 16:53:17 10° 299° (WNW) 1,721 5.4 -13.7°
Maximum altitude 16:56:36 26° 358° (N) 1,028 3.4 -14.2°
Enters shadow 16:58:27 18° 39° (NE) 1,286 3.6 -14.6°
